Regional Weather Roundup
Issued by NWS

Home | Current Version | Previous Version | Text Only | Print | Product List | Glossary Off
Versions: 1 2 3 4 5 6 7 8 9 10 11 12 13 14 15 16 17 18 19 20 21 22 23 24 25 26 27 28 29 30 31 32 33 34 35 36 37 38 39 40 41 42 43 44 45 46 47 48 49 50

676
ASUS45 KSLC 280310
RWRUT

UTAH REGIONAL WEATHER ROUNDUP
NATIONAL WEATHER SERVICE SALT LAKE CITY UT
800 PM MST MON FEB 27 2017

UTZ001>011-023>025-280400-

NORTHERN UTAH

CITY           SKY/WX    TMP DP  RH WIND       PRES   REMARKS
BRIGHAM CITY     N/A     30  14  50 CALM      29.82R
HILL AFB       CLOUDY    28  20  72 S3        29.79R
LOGAN          PTCLDY    22  18  85 CALM      29.81R
OGDEN          MOCLDY    28  21  75 CALM      29.79S
SALT LAKE CITY MOCLDY    32  25  75 SE5       29.81R WCI  27
TOOELE VALLEY  MOCLDY    28  21  74 E3        29.81S
WENDOVER       PTCLDY    30   9  40 NW8       29.81R WCI  23
HEBER CITY     LGT SNOW  21  18  86 SE6       29.77S WCI  14
WEST JORDAN    CLOUDY    30  28  94 SW7       29.81S WCI  23

$$

UTZ011>015-024>027-280400-

CENTRAL/NORTHEAST UTAH

CITY           SKY/WX    TMP DP  RH WIND       PRES   REMARKS
PROVO AIRPORT  FLURRIES  27  25  92 NE3       29.83R
MOAB/CANYONLAN CLOUDY    44  29  55 SW13      29.68R
DELTA          CLOUDY    28  23  80 E8        29.80F WCI  20
PRICE          MOCLDY    29  16  58 NW17G24   29.71S WCI  17
ROOSEVELT      CLOUDY    30  19  64 W14       29.74S WCI  20
VERNAL         CLOUDY    29  24  82 NE6       29.73R WCI  23

$$

UTZ013>016-019>022-027-280400-

SOUTHERN UTAH

CITY           SKY/WX    TMP DP  RH WIND       PRES   REMARKS
BRYCE CANYON   CLOUDY    29  20  69 SW12      29.73S WCI  19
CEDAR CITY     CLOUDY    34  30  85 SW9       29.73R WCI  27
MILFORD        CLOUDY    29  26  89 N20       29.78R WCI  16
ST GEORGE      CLOUDY    48  37  65 S5        29.77R
HANKSVILLE     CLOUDY    43  23  45 W8        29.72S
BLANDING       CLOUDY    35  35  99 SW3       29.85S

$$

REGIONAL REPORTS     COLORADO/ARIZONA

CITY           SKY/WX    TMP DP  RH WIND       PRES   REMARKS
CRAIG, CO      SNOW      23  19  85 SW9       29.77R VSB 1/2 WCI  13
GRAND JUNCTION CLOUDY    42  28  57 SW13      29.70R
RIFLE, CO      CLOUDY    44  18  35 W20G36    29.65R
MONTROSE, CO   CLOUDY    39  30  70 SE5       29.74F
CORTEZ, CO     CLOUDY    37  33  85 W5        29.82S WCI  33
COLORADO CITY  MOCLDY    41  37  87 S8        29.81S
PAGE, AZ       LGT RAIN  43  33  68 SE7       29.77R
GRAND CANYON   LGT SNOW  32  32 100 SW14      29.83R FOG     WCI  22
KINGMAN, AZ    LGT RAIN  47  42  83 S10       29.79S
FLAGSTAFF, AZ  LGT SNOW  31  31 100 SW12      29.84F VSB 3/4 WCI  22

$$

REGIONAL REPORTS    NEVADA/IDAHO/WYOMING

CITY           SKY/WX    TMP DP  RH WIND       PRES   REMARKS
LAS VEGAS, NV  CLOUDY    54  35  48 SW7       29.74R
ELY, NY        MOCLDY    13   9  84 SE3       29.78R
ELKO, NV       PTCLDY    26  14  60 CALM      29.80R
POCATELLO, ID  CLEAR     21  14  74 S14       29.78R WCI   8
BURLEY, ID     CLEAR     27  17  66 W9        29.78R WCI  18
FORT BRIDGER,  LGT SNOW  19  19 100 W15       29.75R WCI   5
EVANSTON, WY   CLOUDY    14   9  80 SW6       29.72S WCI   5
ROCK SPRINGS,  CLOUDY    19  12  74 W22       29.71R WCI   2

$$




USA.gov is the U.S. government's official web portal to all federal, state and local government web resources and services.